Preview of NWS' New Version of Forecast
This preview is not operational and should not be used for support decisions.

Regional Weather Roundup (RWR)

Issued by National Weather Service (NWS)

                            
000
ASCA42 TJSJ 200310
RWRPR 
PUERTO RICO/U.S. VIRGIN ISLANDS HOURLY WEATHER ROUNDUP
NATIONAL WEATHER SERVICE SAN JUAN PR
1100 PM AST TUE MAR 19 2019

PRZ001>002-007>008-010-200400-
PUERTO RICO
  
CITY           SKY/WX    TMP DP  RH WIND       PRES   REMARKS
SAN JUAN LMM   PTCLDY    75  66  73 SE5       30.04S                  
$$

VIZ001>002-200400-
U.S. VIRGIN ISLANDS
  
CITY           SKY/WX    TMP DP  RH WIND       PRES   REMARKS
CHARLOTTE AMA  CLEAR     77  68  73 E9        30.03S                  
CHRISTIANSTED  MOCLDY    75  68  78 E12       30.04S                  
$$

HOURLY WEATHER ROUNDUP FOR THE NEWS MEDIA
  
CITY           SKY/WX    TMP DP  RH WIND       PRES   REMARKS
ORLANDO        LGT RAIN  59  57  93 N13       30.14R FOG              
NEW YORK       FAIR      38  29  70 SW8       30.44R WCI  32          
NEWARK         FAIR      38  24  57 S8        30.42S WCI  32          
CHICAGO        MOCLDY    42  27  55 S6        30.24F                  
HARTFORD       FAIR      27  22  81 CALM      30.40S                  
BOSTON         FAIR      38  19  46 CALM      30.40S                  
DALLAS         PTCLDY    61  40  45 S8        30.20R                  
PHILADELPHIA   FAIR      43  24  47 SW5       30.42S                  
LOS ANGELES    CLOUDY    60  52  74 S12       29.98R                  
WASHINGTON DC  FAIR      39  18  42 SE5       30.40S